• In Österreich
  • Länderverzeichnis
  • Für 7 Tage
  • Wassertemperatur
  • Satellitenkarten
  • Wetterkarte
  • News
  • Widgets
  • user-avatar
    Anmelden

    Stündliche Wetter Luksor

    Heute, 19 Dezember, Dienstag

    Zeit Temperatur Niederschläge Wind Luftdruck Luftfeuchtigkeit
    00:00 +21°C° 0 mm 1 m/S 755 mmHg 41%
    01:00 +20°C° 0 mm 1 m/S 755 mmHg 43%
    02:00 +20°C° 0 mm 1 m/S 754 mmHg 46%
    03:00 +19°C° 0 mm 1 m/S 754 mmHg 47%
    04:00 +19°C° 0 mm 1 m/S 754 mmHg 48%
    05:00 +19°C° 0 mm 1 m/S 754 mmHg 49%
    06:00 +20°C° 0 mm 1 m/S 755 mmHg 44%
    07:00 +21°C° 0 mm 1 m/S 755 mmHg 40%
    08:00 +23°C° 0 mm 1 m/S 755 mmHg 35%
    09:00 +25°C° 0 mm 2 m/S 755 mmHg 29%
    10:00 +27°C° 0 mm 2 m/S 755 mmHg 24%
    11:00 +29°C° 0 mm 3 m/S 755 mmHg 18%
    12:00 +30°C° 0 mm 3 m/S 755 mmHg 16%
    13:00 +31°C° 0 mm 3 m/S 754 mmHg 13%
    14:00 +34°C° 0 mm 3 m/S 753 mmHg 11%
    15:00 +31°C° 0 mm 3 m/S 753 mmHg 13%
    16:00 +29°C° 0 mm 2 m/S 753 mmHg 14%
    17:00 +27°C° 0 mm 1 m/S 753 mmHg 16%
    18:00 +26°C° 0 mm 2 m/S 754 mmHg 20%
    19:00 +25°C° 0 mm 2 m/S 754 mmHg 24%
    20:00 +24°C° 0 mm 2 m/S 754 mmHg 28%
    21:00 +23°C° 0 mm 2 m/S 754 mmHg 33%
    22:00 +21°C° 0 mm 2 m/S 755 mmHg 39%
    23:00 +22°C° 0 mm 1 m/S 755 mmHg 44%

    Morgen, 20 Dezember, Mittwoch

    Zeit Temperatur Niederschläge Wind Luftdruck Luftfeuchtigkeit
    00:00 +21°C° 0 mm 1 m/S 755 mmHg 46%
    01:00 +20°C° 0 mm 1 m/S 754 mmHg 48%
    02:00 +20°C° 0 mm 1 m/S 754 mmHg 51%
    03:00 +19°C° 0 mm 1 m/S 754 mmHg 51%
    04:00 +19°C° 0 mm 1 m/S 754 mmHg 52%
    05:00 +18°C° 0 mm 1 m/S 754 mmHg 53%
    06:00 +20°C° 0 mm 1 m/S 754 mmHg 46%
    07:00 +22°C° 0 mm 1 m/S 755 mmHg 40%
    08:00 +23°C° 0 mm 1 m/S 755 mmHg 34%
    09:00 +25°C° 0 mm 2 m/S 755 mmHg 28%
    10:00 +28°C° 0 mm 2 m/S 755 mmHg 22%
    11:00 +30°C° 0 mm 3 m/S 755 mmHg 16%
    12:00 +31°C° 0 mm 3 m/S 754 mmHg 14%
    13:00 +33°C° 0 mm 3 m/S 754 mmHg 13%
    14:00 +34°C° 0 mm 3 m/S 753 mmHg 11%
    15:00 +31°C° 0 mm 2 m/S 753 mmHg 14%
    16:00 +29°C° 0 mm 2 m/S 753 mmHg 16%
    17:00 +27°C° 0 mm 1 m/S 753 mmHg 18%
    18:00 +26°C° 0 mm 1 m/S 753 mmHg 22%
    19:00 +26°C° 0 mm 2 m/S 754 mmHg 26%
    20:00 +25°C° 0 mm 3 m/S 755 mmHg 30%
    21:00 +24°C° 0 mm 2 m/S 755 mmHg 35%
    22:00 +23°C° 0 mm 2 m/S 755 mmHg 41%
    23:00 +23°C° 0 mm 2 m/S 755 mmHg 46%

    übermorgen, 21 Dezember, Donnerstag

    Zeit Temperatur Niederschläge Wind Luftdruck Luftfeuchtigkeit
    00:00 +21°C° 0 mm 2 m/S 755 mmHg 49%
    01:00 +21°C° 0 mm 1 m/S 755 mmHg 52%
    02:00 +20°C° 0 mm 1 m/S 754 mmHg 55%
    03:00 +20°C° 0 mm 1 m/S 754 mmHg 56%
    04:00 +19°C° 0 mm 1 m/S 754 mmHg 58%
    05:00 +19°C° 0 mm 1 m/S 754 mmHg 59%
    06:00 +21°C° 0 mm 1 m/S 755 mmHg 54%
    07:00 +22°C° 0 mm 1 m/S 755 mmHg 49%
    08:00 +23°C° 0 mm 1 m/S 756 mmHg 43%
    09:00 +25°C° 0 mm 2 m/S 755 mmHg 39%
    10:00 +28°C° 0 mm 2 m/S 755 mmHg 35%
    11:00 +30°C° 0 mm 3 m/S 755 mmHg 30%
    12:00 +31°C° 0 mm 3 m/S 754 mmHg 27%
    13:00 +33°C° 0 mm 3 m/S 754 mmHg 24%
    14:00 +34°C° 0 mm 3 m/S 753 mmHg 22%
    15:00 +31°C° 0 mm 3 m/S 753 mmHg 24%
    16:00 +30°C° 0 mm 2 m/S 753 mmHg 27%
    17:00 +28°C° 0 mm 2 m/S 753 mmHg 29%
    18:00 +27°C° 0 mm 2 m/S 753 mmHg 34%
    19:00 +26°C° 0 mm 2 m/S 754 mmHg 38%
    20:00 +26°C° 0 mm 3 m/S 754 mmHg 42%
    21:00 +25°C° 0 mm 2 m/S 754 mmHg 47%
    22:00 +24°C° 0 mm 2 m/S 754 mmHg 51%
    23:00 +23°C° 0 mm 1 m/S 754 mmHg 56%

    22 Dezember, Freitag

    Zeit Temperatur Niederschläge Wind Luftdruck Luftfeuchtigkeit
    00:00 +22°C° 0 mm 1 m/S 754 mmHg 58%
    01:00 +22°C° 0 mm 1 m/S 754 mmHg 61%
    02:00 +21°C° 0 mm 1 m/S 754 mmHg 63%
    03:00 +21°C° 0 mm 1 m/S 753 mmHg 64%
    04:00 +20°C° 0 mm 1 m/S 753 mmHg 66%
    05:00 +20°C° 0 mm 1 m/S 753 mmHg 67%
    06:00 +21°C° 0 mm 1 m/S 754 mmHg 60%
    07:00 +22°C° 0 mm 1 m/S 754 mmHg 54%
    08:00 +24°C° 0 mm 1 m/S 754 mmHg 48%
    09:00 +26°C° 0 mm 1 m/S 754 mmHg 41%
    10:00 +27°C° 0 mm 2 m/S 754 mmHg 35%
    11:00 +29°C° 0 mm 2 m/S 754 mmHg 29%
    12:00 +30°C° 0 mm 2 m/S 753 mmHg 26%
    13:00 +31°C° 0 mm 3 m/S 752 mmHg 23%
    14:00 +33°C° 0 mm 3 m/S 752 mmHg 20%
    15:00 +30°C° 0 mm 2 m/S 751 mmHg 23%
    16:00 +29°C° 0 mm 1 m/S 751 mmHg 25%
    17:00 +25°C° 0 mm 0 m/S 751 mmHg 28%
    18:00 +26°C° 0 mm 1 m/S 752 mmHg 31%
    19:00 +26°C° 0 mm 1 m/S 752 mmHg 34%
    20:00 +25°C° 0 mm 1 m/S 752 mmHg 37%
    21:00 +24°C° 0 mm 1 m/S 752 mmHg 43%
    22:00 +24°C° 0 mm 1 m/S 752 mmHg 49%
    23:00 +23°C° 0 mm 2 m/S 752 mmHg 55%

    23 Dezember, Samstag

    Zeit Temperatur Niederschläge Wind Luftdruck Luftfeuchtigkeit
    00:00 +23°C° 0 mm 1 m/S 752 mmHg 60%
    01:00 +22°C° 0 mm 1 m/S 752 mmHg 66%
    02:00 +22°C° 0 mm 1 m/S 751 mmHg 72%
    03:00 +22°C° 0 mm 1 m/S 751 mmHg 76%
    04:00 +21°C° 0 mm 1 m/S 751 mmHg 80%
    05:00 +21°C° 0 mm 1 m/S 751 mmHg 84%
    06:00 +22°C° 0 mm 1 m/S 751 mmHg 81%
    07:00 +23°C° 0 mm 1 m/S 752 mmHg 78%
    08:00 +24°C° 0 mm 1 m/S 752 mmHg 75%
    09:00 +25°C° 0 mm 1 m/S 752 mmHg 68%
    10:00 +27°C° 0 mm 2 m/S 752 mmHg 60%
    11:00 +29°C° 0 mm 2 m/S 752 mmHg 53%
    12:00 +30°C° 0 mm 2 m/S 751 mmHg 47%
    13:00 +31°C° 0 mm 1 m/S 751 mmHg 41%
    14:00 +32°C° 0 mm 1 m/S 750 mmHg 36%
    15:00 +31°C° 0 mm 1 m/S 750 mmHg 37%
    16:00 +30°C° 0 mm 1 m/S 750 mmHg 39%
    17:00 +28°C° 0 mm 1 m/S 750 mmHg 40%
    18:00 +28°C° 0 mm 2 m/S 751 mmHg 41%
    19:00 +27°C° 0 mm 3 m/S 752 mmHg 42%
    20:00 +26°C° 0 mm 4 m/S 753 mmHg 42%
    21:00 +25°C° 0 mm 5 m/S 753 mmHg 41%
    22:00 +23°C° 0 mm 5 m/S 753 mmHg 41%
    23:00 +22°C° 0 mm 5 m/S 753 mmHg 40%

    24 Dezember, Sonntag

    Zeit Temperatur Niederschläge Wind Luftdruck Luftfeuchtigkeit
    00:00 +21°C° 0 mm 5 m/S 753 mmHg 42%
    01:00 +20°C° 0 mm 5 m/S 753 mmHg 43%
    02:00 +20°C° 0 mm 5 m/S 753 mmHg 45%
    03:00 +19°C° 0 mm 5 m/S 753 mmHg 47%
    04:00 +19°C° 0 mm 5 m/S 753 mmHg 49%
    05:00 +17°C° 0 mm 5 m/S 753 mmHg 50%
    06:00 +17°C° 0 mm 5 m/S 754 mmHg 50%
    07:00 +17°C° 0 mm 5 m/S 754 mmHg 49%
    08:00 +17°C° 0 mm 5 m/S 755 mmHg 48%
    09:00 +20°C° 0 mm 6 m/S 755 mmHg 43%
    10:00 +21°C° 0 mm 6 m/S 755 mmHg 38%
    11:00 +22°C° 0 mm 7 m/S 755 mmHg 33%
    12:00 +23°C° 0 mm 7 m/S 754 mmHg 31%
    13:00 +24°C° 0 mm 7 m/S 754 mmHg 28%
    14:00 +26°C° 0 mm 7 m/S 753 mmHg 25%
    15:00 +24°C° 0 mm 7 m/S 753 mmHg 26%
    16:00 +23°C° 0 mm 7 m/S 754 mmHg 26%
    17:00 +22°C° 0 mm 7 m/S 754 mmHg 26%
    18:00 +21°C° 0 mm 6 m/S 754 mmHg 28%
    19:00 +20°C° 0 mm 6 m/S 755 mmHg 30%
    20:00 +19°C° 0 mm 5 m/S 755 mmHg 32%
    21:00 +17°C° 0 mm 5 m/S 756 mmHg 34%
    22:00 +16°C° 0 mm 5 m/S 756 mmHg 35%
    23:00 +17°C° 0 mm 4 m/S 756 mmHg 37%
    Mehr zeigen